Location: Kam�li
(14.6864°N, 3.1482°W)
Time: 02:26:54
(UTC+00:00)

EO 1 Delta rocket - Pass Details

Date: 29 October 2020
Orbit: 696 x 1793 km, 95.4° (Epoch: 02 December)

Event Time Altitude Azimuth Distance (km) Brightness Sun altitude
Exits shadow 19:29:23 24° 355° (N) 1,443 5.3 -25.6°
Maximum altitude 19:32:07 65° 280° (W) 798 4.2 -26.2°
Drops below altitude 10° 19:37:10 10° 198° (SSW) 2,383 6.8 -27.4°
Sets 19:39:42 0° 195° (SSW) 3,432 7.7 -28.0°
